Time,TemperatureF,DewpointF,PressureIn,WindDirection,WindDirectionDegrees,WindSpeedMPH,WindSpeedGustMPH,Humidity,HourlyPrecipIn,Conditions,Clouds,dailyrainin,SoftwareType,DateUTC
2013-02-19 00:05:00,15.9,9.7,30.20,North,350,8.0,9.0,76,0.00,,,0.00,Wunderground v.1.15,2013-02-19 06:05:00,
2013-02-19 00:10:00,15.9,9.7,30.20,NNW,345,8.0,15.0,76,0.00,,,0.00,Wunderground v.1.15,2013-02-19 06:10:00,
2013-02-19 00:20:00,15.8,9.3,30.21,NNW,337,10.0,15.0,75,0.00,,,0.00,Wunderground v.1.15,2013-02-19 06:20:00,
2013-02-19 00:30:00,15.6,9.1,30.21,NW,314,8.0,8.0,75,0.00,,,0.00,Wunderground v.1.15,2013-02-19 06:30:00,
2013-02-19 00:40:00,15.4,8.9,30.22,NW,316,8.0,19.0,75,0.00,,,0.00,Wunderground v.1.15,2013-02-19 06:40:00,
2013-02-19 00:50:00,14.9,8.4,30.22,North,350,10.0,10.0,75,0.00,,,0.00,Wunderground v.1.15,2013-02-19 06:50:00,
2013-02-19 01:00:00,14.6,8.1,30.23,NW,325,10.0,10.0,75,0.00,,,0.00,Wunderground v.1.15,2013-02-19 07:00:00,
2013-02-19 01:05:00,14.5,8.0,30.23,North,350,10.0,19.0,75,0.00,,,0.00,Wunderground v.1.15,2013-02-19 07:05:00,
2013-02-19 01:10:00,14.6,8.1,30.23,WNW,296,11.0,19.0,75,0.00,,,0.00,Wunderground v.1.15,2013-02-19 07:10:00,
2013-02-19 01:20:00,14.8,8.3,30.23,North,360,10.0,19.0,75,0.00,,,0.00,Wunderground v.1.15,2013-02-19 07:20:00,
2013-02-19 01:30:00,14.6,8.1,30.24,NW,320,12.0,19.0,75,0.00,,,0.00,Wunderground v.1.15,2013-02-19 07:30:00,
2013-02-19 01:40:00,14.5,8.0,30.24,NNW,336,12.0,19.0,75,0.00,,,0.00,Wunderground v.1.15,2013-02-19 07:40:00,
2013-02-19 01:50:00,13.9,7.1,30.24,North,355,12.0,19.0,74,0.00,,,0.00,Wunderground v.1.15,2013-02-19 07:50:00,
2013-02-19 02:00:00,13.7,7.2,30.24,NW,324,12.0,19.0,75,0.00,,,0.00,Wunderground v.1.15,2013-02-19 08:00:00,
2013-02-19 02:10:00,13.7,7.2,30.25,North,360,11.0,11.0,75,0.00,,,0.00,Wunderground v.1.15,2013-02-19 08:10:00,
2013-02-19 02:20:00,13.4,7.0,30.26,NNW,337,10.0,19.0,75,0.00,,,0.00,Wunderground v.1.15,2013-02-19 08:20:00,
2013-02-19 02:25:00,13.2,6.8,30.26,NNW,344,10.0,19.0,75,0.00,,,0.00,Wunderground v.1.15,2013-02-19 08:25:00,
2013-02-19 02:30:00,13.0,6.6,30.26,NNW,329,10.0,10.0,75,0.00,,,0.00,Wunderground v.1.15,2013-02-19 08:30:00,
2013-02-19 02:40:00,12.7,6.6,30.27,NNW,344,10.0,10.0,76,0.00,,,0.00,Wunderground v.1.15,2013-02-19 08:40:00,
2013-02-19 02:50:00,12.3,6.2,30.27,NNW,331,9.0,9.0,76,0.00,,,0.00,Wunderground v.1.15,2013-02-19 08:50:00,
2013-02-19 03:00:00,12.1,5.7,30.27,North,350,10.0,10.0,75,0.00,,,0.00,Wunderground v.1.15,2013-02-19 09:00:00,
2013-02-19 03:10:00,11.9,5.5,30.27,North,9,11.0,19.0,75,0.00,,,0.00,Wunderground v.1.15,2013-02-19 09:10:00,
2013-02-19 03:20:00,11.6,4.9,30.27,WNW,301,11.0,19.0,74,0.00,,,0.00,Wunderground v.1.15,2013-02-19 09:20:00,
2013-02-19 03:30:00,11.2,4.8,30.28,NNW,336,9.0,9.0,75,0.00,,,0.00,Wunderground v.1.15,2013-02-19 09:30:00,
2013-02-19 03:35:00,11.0,4.6,30.28,NNW,333,9.0,11.0,75,0.00,,,0.00,Wunderground v.1.15,2013-02-19 09:35:00,
2013-02-19 03:45:00,10.7,4.6,30.28,NW,315,9.0,11.0,76,0.00,,,0.00,Wunderground v.1.15,2013-02-19 09:45:00,
2013-02-19 03:50:00,10.5,4.4,30.29,NNW,335,9.0,9.0,76,0.00,,,0.00,Wunderground v.1.15,2013-02-19 09:50:00,
2013-02-19 04:00:00,10.3,4.2,30.29,NW,306,10.0,10.0,76,0.00,,,0.00,Wunderground v.1.15,2013-02-19 10:00:00,
2013-02-19 04:10:00,10.0,4.2,30.29,NW,313,10.0,10.0,77,0.00,,,0.00,Wunderground v.1.15,2013-02-19 10:10:00,
2013-02-19 04:20:00,9.4,3.6,30.29,North,355,9.0,9.0,77,0.00,,,0.00,Wunderground v.1.15,2013-02-19 10:20:00,
2013-02-19 04:25:00,9.1,3.4,30.30,WNW,301,10.0,10.0,77,0.00,,,0.00,Wunderground v.1.15,2013-02-19 10:25:00,
2013-02-19 04:35:00,8.7,3.0,30.30,NW,325,11.0,11.0,77,0.00,,,0.00,Wunderground v.1.15,2013-02-19 10:35:00,
2013-02-19 04:40:00,8.5,2.8,30.31,NW,308,11.0,19.0,77,0.00,,,0.00,Wunderground v.1.15,2013-02-19 10:40:00,
2013-02-19 04:50:00,8.4,2.9,30.31,NNW,332,9.0,9.0,78,0.00,,,0.00,Wunderground v.1.15,2013-02-19 10:50:00,
2013-02-19 05:00:00,8.3,2.9,30.31,North,11,10.0,19.0,78,0.00,,,0.00,Wunderground v.1.15,2013-02-19 11:00:00,
2013-02-19 05:10:00,8.0,2.3,30.31,NNW,346,11.0,11.0,77,0.00,,,0.00,Wunderground v.1.15,2013-02-19 11:10:00,
2013-02-19 05:15:00,7.5,1.8,30.32,NNW,329,10.0,19.0,77,0.00,,,0.00,Wunderground v.1.15,2013-02-19 11:15:00,
2013-02-19 05:25:00,7.1,1.4,30.31,North,350,10.0,13.0,77,0.00,,,0.00,Wunderground v.1.15,2013-02-19 11:25:00,
2013-02-19 05:35:00,6.7,1.0,30.32,North,355,11.0,19.0,77,0.00,,,0.00,Wunderground v.1.15,2013-02-19 11:35:00,
2013-02-19 05:40:00,6.5,0.8,30.33,NNW,348,11.0,11.0,77,0.00,,,0.00,Wunderground v.1.15,2013-02-19 11:40:00,
2013-02-19 05:50:00,6.2,0.5,30.33,NNW,346,10.0,19.0,77,0.00,,,0.00,Wunderground v.1.15,2013-02-19 11:50:00,
2013-02-19 06:00:00,5.9,0.2,30.33,NNW,338,8.0,8.0,77,0.00,,,0.00,Wunderground v.1.15,2013-02-19 12:00:00,
2013-02-19 06:10:00,5.9,0.2,30.33,NNW,327,9.0,9.0,77,0.00,,,0.00,Wunderground v.1.15,2013-02-19 12:10:00,
2013-02-19 06:15:00,5.9,0.2,30.34,NNW,347,9.0,9.0,77,0.00,,,0.00,Wunderground v.1.15,2013-02-19 12:15:00,
2013-02-19 06:20:00,5.8,-0.1,30.34,NW,318,9.0,13.0,76,0.00,,,0.00,Wunderground v.1.15,2013-02-19 12:20:00,
2013-02-19 06:30:00,5.8,-0.1,30.36,NNW,340,9.0,9.0,76,0.00,,,0.00,Wunderground v.1.15,2013-02-19 12:30:00,
2013-02-19 06:40:00,5.7,-0.5,30.36,NNW,339,9.0,19.0,75,0.00,,,0.00,Wunderground v.1.15,2013-02-19 12:40:00,
2013-02-19 06:50:00,5.6,-0.3,30.37,NNW,343,9.0,9.0,76,0.00,,,0.00,Wunderground v.1.15,2013-02-19 12:50:00,
2013-02-19 07:00:00,5.5,-0.4,30.38,NNW,329,7.0,7.0,76,0.00,,,0.00,Wunderground v.1.15,2013-02-19 13:00:00,
2013-02-19 07:10:00,5.5,-0.4,30.39,NW,322,7.0,7.0,76,0.00,,,0.00,Wunderground v.1.15,2013-02-19 13:10:00,
2013-02-19 07:20:00,5.5,-0.4,30.38,WNW,296,8.0,8.0,76,0.00,,,0.00,Wunderground v.1.15,2013-02-19 13:20:00,
2013-02-19 07:30:00,5.4,-0.8,30.38,North,351,9.0,9.0,75,0.00,,,0.00,Wunderground v.1.15,2013-02-19 13:30:00,
2013-02-19 07:35:00,5.4,-1.1,30.38,NNW,329,9.0,19.0,74,0.00,,,0.00,Wunderground v.1.15,2013-02-19 13:35:00,
2013-02-19 07:40:00,5.3,-1.2,30.40,NNW,337,9.0,19.0,74,0.00,,,0.00,Wunderground v.1.15,2013-02-19 13:40:00,
2013-02-19 07:50:00,5.4,-1.1,30.41,NW,321,8.0,19.0,74,0.00,,,0.00,Wunderground v.1.15,2013-02-19 13:50:00,
2013-02-19 08:00:00,5.9,-0.6,30.41,NNW,336,8.0,8.0,74,0.00,,,0.00,Wunderground v.1.15,2013-02-19 14:00:00,
2013-02-19 08:10:00,6.1,-0.7,30.42,NW,323,8.0,8.0,73,0.00,,,0.00,Wunderground v.1.15,2013-02-19 14:10:00,
2013-02-19 08:15:00,6.3,-0.8,30.43,North,355,8.0,15.0,72,0.00,,,0.00,Wunderground v.1.15,2013-02-19 14:15:00,
2013-02-19 08:25:00,6.7,-0.4,30.43,North,360,8.0,19.0,72,0.00,,,0.00,Wunderground v.1.15,2013-02-19 14:25:00,
2013-02-19 08:30:00,6.9,-0.5,30.43,NNW,331,7.0,19.0,71,0.00,,,0.00,Wunderground v.1.15,2013-02-19 14:30:00,
2013-02-19 08:40:00,7.1,-0.3,30.43,NNW,331,10.0,10.0,71,0.00,,,0.00,Wunderground v.1.15,2013-02-19 14:40:00,
2013-02-19 08:50:00,7.3,-0.4,30.43,NNW,342,12.0,12.0,70,0.00,,,0.00,Wunderground v.1.15,2013-02-19 14:50:00,
2013-02-19 09:00:00,7.6,-0.1,30.43,North,355,11.0,11.0,70,0.00,,,0.00,Wunderground v.1.15,2013-02-19 15:00:00,
2013-02-19 09:10:00,8.1,0.3,30.43,NNW,335,12.0,19.0,70,0.00,,,0.00,Wunderground v.1.15,2013-02-19 15:10:00,
2013-02-19 09:20:00,8.3,0.2,30.44,NNW,338,12.0,12.0,69,0.00,,,0.00,Wunderground v.1.15,2013-02-19 15:20:00,
2013-02-19 09:25:00,8.7,0.6,30.44,North,350,11.0,14.0,69,0.00,,,0.00,Wunderground v.1.15,2013-02-19 15:25:00,
2013-02-19 09:35:00,9.1,1.0,30.45,NNW,338,11.0,19.0,69,0.00,,,0.00,Wunderground v.1.15,2013-02-19 15:35:00,
2013-02-19 09:40:00,9.2,1.1,30.45,NNW,334,9.0,9.0,69,0.00,,,0.00,Wunderground v.1.15,2013-02-19 15:40:00,
2013-02-19 09:50:00,9.8,1.3,30.45,North,5,9.0,9.0,68,0.00,,,0.00,Wunderground v.1.15,2013-02-19 15:50:00,
2013-02-19 10:00:00,9.9,1.1,30.46,NNW,330,10.0,10.0,67,0.00,,,0.00,Wunderground v.1.15,2013-02-19 16:00:00,
2013-02-19 10:10:00,10.0,0.9,30.46,NNW,332,10.0,10.0,66,0.00,,,0.00,Wunderground v.1.15,2013-02-19 16:10:00,
2013-02-19 10:20:00,10.8,1.3,30.46,NNE,25,10.0,19.0,65,0.00,,,0.00,Wunderground v.1.15,2013-02-19 16:20:00,
2013-02-19 10:30:00,11.4,3.8,30.46,NW,325,11.0,19.0,71,0.00,,,0.00,Wunderground v.1.15,2013-02-19 16:30:00,
2013-02-19 10:35:00,11.6,1.8,30.46,NNW,339,9.0,19.0,64,0.00,,,0.00,Wunderground v.1.15,2013-02-19 16:35:00,
2013-02-19 10:45:00,11.9,1.4,30.46,NNW,333,8.0,12.0,62,0.00,,,0.00,Wunderground v.1.15,2013-02-19 16:45:00,
2013-02-19 10:50:00,12.2,1.7,30.46,NW,321,9.0,9.0,62,0.00,,,0.00,Wunderground v.1.15,2013-02-19 16:50:00,
2013-02-19 11:00:00,13.0,1.7,30.47,North,350,9.0,9.0,60,0.00,,,0.00,Wunderground v.1.15,2013-02-19 17:00:00,
2013-02-19 11:10:00,13.0,1.3,30.47,NW,325,9.0,19.0,59,0.00,,,0.00,Wunderground v.1.15,2013-02-19 17:10:00,
2013-02-19 11:20:00,13.8,1.4,30.47,NNW,328,9.0,9.0,57,0.00,,,0.00,Wunderground v.1.15,2013-02-19 17:20:00,
2013-02-19 11:30:00,14.6,1.7,30.48,NNW,336,9.0,19.0,56,0.00,,,0.00,Wunderground v.1.15,2013-02-19 17:30:00,
2013-02-19 11:40:00,15.3,2.4,30.47,NNW,340,9.0,9.0,56,0.00,,,0.00,Wunderground v.1.15,2013-02-19 17:40:00,
2013-02-19 11:50:00,15.0,2.1,30.48,NW,321,10.0,19.0,56,0.00,,,0.00,Wunderground v.1.15,2013-02-19 17:50:00,
2013-02-19 12:00:00,15.4,1.7,30.48,NNW,336,10.0,10.0,54,0.00,,,0.00,Wunderground v.1.15,2013-02-19 18:00:00,
2013-02-19 12:10:00,15.7,1.2,30.48,NNW,345,10.0,11.0,52,0.00,,,0.00,Wunderground v.1.15,2013-02-19 18:10:00,
2013-02-19 12:15:00,15.7,0.7,30.47,NNW,343,10.0,11.0,51,0.00,,,0.00,Wunderground v.1.15,2013-02-19 18:15:00,
2013-02-19 12:25:00,16.9,1.9,30.47,NNW,336,9.0,12.0,51,0.00,,,0.00,Wunderground v.1.15,2013-02-19 18:25:00,
2013-02-19 12:35:00,16.7,0.8,30.47,NNW,348,9.0,17.0,49,0.00,,,0.00,Wunderground v.1.15,2013-02-19 18:35:00,
2013-02-19 12:40:00,16.9,1.4,30.47,North,360,10.0,17.0,50,0.00,,,0.00,Wunderground v.1.15,2013-02-19 18:40:00,
2013-02-19 12:50:00,17.1,1.2,30.47,NNW,342,9.0,9.0,49,0.00,,,0.00,Wunderground v.1.15,2013-02-19 18:50:00,
2013-02-19 13:00:00,17.7,1.3,30.46,WNW,301,10.0,17.0,48,0.00,,,0.00,Wunderground v.1.15,2013-02-19 19:00:00,
2013-02-19 13:10:00,18.2,1.8,30.45,NNW,327,9.0,9.0,48,0.00,,,0.00,Wunderground v.1.15,2013-02-19 19:10:00,
2013-02-19 13:20:00,18.2,0.9,30.45,NNW,335,9.0,9.0,46,0.00,,,0.00,Wunderground v.1.15,2013-02-19 19:20:00,
2013-02-19 13:30:00,18.6,0.3,30.45,North,355,9.0,17.0,44,0.00,,,0.00,Wunderground v.1.15,2013-02-19 19:30:00,
2013-02-19 13:35:00,18.6,-0.7,30.45,NNW,329,10.0,17.0,42,0.00,,,0.00,Wunderground v.1.15,2013-02-19 19:35:00,
2013-02-19 13:45:00,18.9,1.0,30.45,North,350,9.0,17.0,45,0.00,,,0.00,Wunderground v.1.15,2013-02-19 19:45:00,
2013-02-19 13:50:00,19.9,0.5,30.45,NNW,335,9.0,17.0,42,0.00,,,0.00,Wunderground v.1.15,2013-02-19 19:50:00,
2013-02-19 14:00:00,19.4,0.0,30.44,NNW,348,9.0,9.0,42,0.00,,,0.00,Wunderground v.1.15,2013-02-19 20:00:00,
2013-02-19 14:10:00,19.9,-0.6,30.44,NNW,346,8.0,17.0,40,0.00,,,0.00,Wunderground v.1.15,2013-02-19 20:10:00,
2013-02-19 14:15:00,20.0,0.0,30.44,NW,325,8.0,17.0,41,0.00,,,0.00,Wunderground v.1.15,2013-02-19 20:15:00,
2013-02-19 14:20:00,19.8,-1.8,30.44,North,351,9.0,17.0,38,0.00,,,0.00,Wunderground v.1.15,2013-02-19 20:20:00,
2013-02-19 14:30:00,20.3,-1.9,30.44,North,351,9.0,17.0,37,0.00,,,0.00,Wunderground v.1.15,2013-02-19 20:30:00,
2013-02-19 14:35:00,20.5,-1.1,30.44,NNW,347,9.0,17.0,38,0.00,,,0.00,Wunderground v.1.15,2013-02-19 20:35:00,
2013-02-19 14:40:00,20.7,-0.4,30.44,NNW,341,8.0,17.0,39,0.00,,,0.00,Wunderground v.1.15,2013-02-19 20:40:00,
2013-02-19 14:50:00,20.3,-2.5,30.44,North,350,8.0,8.0,36,0.00,,,0.00,Wunderground v.1.15,2013-02-19 20:50:00,
2013-02-19 15:00:00,20.5,-1.1,30.44,North,11,8.0,8.0,38,0.00,,,0.00,Wunderground v.1.15,2013-02-19 21:00:00,
2013-02-19 15:10:00,20.6,-1.6,30.44,NNW,346,6.0,17.0,37,0.00,,,0.00,Wunderground v.1.15,2013-02-19 21:10:00,
2013-02-19 15:20:00,20.9,-2.5,30.44,NNW,346,6.0,17.0,35,0.00,,,0.00,Wunderground v.1.15,2013-02-19 21:20:00,
2013-02-19 15:30:00,20.7,-1.5,30.43,NNW,344,8.0,8.0,37,0.00,,,0.00,Wunderground v.1.15,2013-02-19 21:30:00,
2013-02-19 15:40:00,20.7,-2.1,30.44,NNW,334,7.0,17.0,36,0.00,,,0.00,Wunderground v.1.15,2013-02-19 21:40:00,
2013-02-19 15:45:00,20.6,-2.2,30.43,NE,35,7.0,17.0,36,0.00,,,0.00,Wunderground v.1.15,2013-02-19 21:45:00,
2013-02-19 15:50:00,20.7,-0.9,30.44,NNW,344,7.0,17.0,38,0.00,,,0.00,Wunderground v.1.15,2013-02-19 21:50:00,
2013-02-19 16:00:00,21.3,0.1,30.43,North,360,5.0,5.0,39,0.00,,,0.00,Wunderground v.1.15,2013-02-19 22:00:00,
2013-02-19 16:10:00,21.1,-0.6,30.43,NNE,17,5.0,5.0,38,0.00,,,0.00,Wunderground v.1.15,2013-02-19 22:10:00,
2013-02-19 16:20:00,20.9,-1.3,30.44,North,355,5.0,5.0,37,0.00,,,0.00,Wunderground v.1.15,2013-02-19 22:20:00,
2013-02-19 16:30:00,20.6,-1.6,30.43,North,355,4.0,17.0,37,0.00,,,0.00,Wunderground v.1.15,2013-02-19 22:30:00,
2013-02-19 16:40:00,20.1,-3.2,30.42,NNE,14,6.0,6.0,35,0.00,,,0.00,Wunderground v.1.15,2013-02-19 22:40:00,
2013-02-19 16:45:00,20.2,-1.4,30.43,NNE,22,5.0,17.0,38,0.00,,,0.00,Wunderground v.1.15,2013-02-19 22:45:00,
2013-02-19 16:50:00,20.2,-2.0,30.43,North,5,5.0,5.0,37,0.00,,,0.00,Wunderground v.1.15,2013-02-19 22:50:00,
2013-02-19 17:00:00,20.1,-0.9,30.43,NNE,30,4.0,17.0,39,0.00,,,0.00,Wunderground v.1.15,2013-02-19 23:00:00,
2013-02-19 17:10:00,19.8,-0.7,30.43,NNE,12,3.0,3.0,40,0.00,,,0.00,Wunderground v.1.15,2013-02-19 23:10:00,
2013-02-19 17:20:00,18.9,-1.5,30.43,NE,45,5.0,5.0,40,0.00,,,0.00,Wunderground v.1.15,2013-02-19 23:20:00,
2013-02-19 17:25:00,18.7,-1.1,30.43,NNE,29,4.0,17.0,41,0.00,,,0.00,Wunderground v.1.15,2013-02-19 23:25:00,
2013-02-19 17:35:00,18.3,-1.0,30.43,NNE,26,4.0,17.0,42,0.00,,,0.00,Wunderground v.1.15,2013-02-19 23:35:00,
2013-02-19 17:40:00,17.9,-1.9,30.43,NE,37,4.0,17.0,41,0.00,,,0.00,Wunderground v.1.15,2013-02-19 23:40:00,
2013-02-19 17:50:00,17.3,-1.9,30.43,NE,36,4.0,17.0,42,0.00,,,0.00,Wunderground v.1.15,2013-02-19 23:50:00,
2013-02-19 18:00:00,16.3,-1.4,30.42,NNE,33,5.0,5.0,45,0.00,,,0.00,Wunderground v.1.15,2013-02-20 00:00:00,
2013-02-19 18:10:00,15.6,-1.5,30.42,NNE,30,5.0,5.0,46,0.00,,,0.00,Wunderground v.1.15,2013-02-20 00:10:00,
2013-02-19 18:20:00,15.0,-1.2,30.43,NNE,29,3.0,3.0,48,0.00,,,0.00,Wunderground v.1.15,2013-02-20 00:20:00,
2013-02-19 18:30:00,14.5,-0.8,30.43,NNE,30,2.0,2.0,50,0.00,,,0.00,Wunderground v.1.15,2013-02-20 00:30:00,
2013-02-19 18:35:00,14.2,-0.6,30.43,NNE,30,2.0,4.0,51,0.00,,,0.00,Wunderground v.1.15,2013-02-20 00:35:00,
2013-02-19 18:45:00,13.8,-0.2,30.43,NNE,32,3.0,9.0,53,0.00,,,0.00,Wunderground v.1.15,2013-02-20 00:45:00,
2013-02-19 18:50:00,13.5,-0.1,30.43,NNE,32,2.0,9.0,54,0.00,,,0.00,Wunderground v.1.15,2013-02-20 00:50:00,
2013-02-19 18:55:00,13.3,0.1,30.43,NNE,32,2.0,9.0,55,0.00,,,0.00,Wunderground v.1.15,2013-02-20 00:55:00,
2013-02-19 19:00:00,13.1,-0.1,30.43,NNE,32,2.0,9.0,55,0.00,,,0.00,Wunderground v.1.15,2013-02-20 01:00:00,
2013-02-19 19:10:00,12.6,0.2,30.44,NNE,32,2.0,9.0,57,0.00,,,0.00,Wunderground v.1.15,2013-02-20 01:10:00,
2013-02-19 19:20:00,11.9,-0.1,30.45,NNE,32,1.0,9.0,58,0.00,,,0.00,Wunderground v.1.15,2013-02-20 01:20:00,
2013-02-19 19:30:00,11.5,0.3,30.44,NNE,32,1.0,9.0,60,0.00,,,0.00,Wunderground v.1.15,2013-02-20 01:30:00,
2013-02-19 19:40:00,11.0,0.2,30.45,NNE,32,1.0,9.0,61,0.00,,,0.00,Wunderground v.1.15,2013-02-20 01:40:00,
2013-02-19 19:50:00,10.9,0.4,30.45,NNE,32,1.0,9.0,62,0.00,,,0.00,Wunderground v.1.15,2013-02-20 01:50:00,
2013-02-19 19:55:00,10.7,0.6,30.45,NNE,32,2.0,9.0,63,0.00,,,0.00,Wunderground v.1.15,2013-02-20 01:55:00,
2013-02-19 20:00:00,10.4,0.6,30.45,NNE,32,2.0,9.0,64,0.00,,,0.00,Wunderground v.1.15,2013-02-20 02:00:00,
2013-02-19 20:10:00,10.1,0.7,30.45,NNE,32,1.0,9.0,65,0.00,,,0.00,Wunderground v.1.15,2013-02-20 02:10:00,
2013-02-19 20:20:00,9.8,0.7,30.44,NNE,32,2.0,9.0,66,0.00,,,0.00,Wunderground v.1.15,2013-02-20 02:20:00,
2013-02-19 20:30:00,9.4,0.6,30.45,NNE,33,2.0,2.0,67,0.00,,,0.00,Wunderground v.1.15,2013-02-20 02:30:00,
2013-02-19 20:40:00,9.0,0.3,30.45,NNE,33,1.0,1.0,67,0.00,,,0.00,Wunderground v.1.15,2013-02-20 02:40:00,
2013-02-19 20:50:00,8.8,0.4,30.46,NNE,33,1.0,9.0,68,0.00,,,0.00,Wunderground v.1.15,2013-02-20 02:50:00,
2013-02-19 20:55:00,8.7,0.3,30.46,NNE,33,1.0,9.0,68,0.00,,,0.00,Wunderground v.1.15,2013-02-20 02:55:00,
2013-02-19 21:05:00,8.5,0.1,30.46,NNE,33,0.0,9.0,68,0.00,,,0.00,Wunderground v.1.15,2013-02-20 03:05:00,
2013-02-19 21:15:00,8.1,0.0,30.46,NNE,33,0.0,9.0,69,0.00,,,0.00,Wunderground v.1.15,2013-02-20 03:15:00,
2013-02-19 21:25:00,7.9,-0.2,30.47,NNE,33,0.0,9.0,69,0.00,,,0.00,Wunderground v.1.15,2013-02-20 03:25:00,
2013-02-19 21:30:00,7.8,-0.3,30.47,NNE,33,0.0,9.0,69,0.00,,,0.00,Wunderground v.1.15,2013-02-20 03:30:00,
2013-02-19 21:40:00,7.8,-0.3,30.48,NNE,33,0.0,9.0,69,0.00,,,0.00,Wunderground v.1.15,2013-02-20 03:40:00,
2013-02-19 21:50:00,7.6,-0.5,30.49,NNE,33,0.0,9.0,69,0.00,,,0.00,Wunderground v.1.15,2013-02-20 03:50:00,
2013-02-19 22:00:00,7.5,-0.6,30.49,NNE,33,0.0,9.0,69,0.00,,,0.00,Wunderground v.1.15,2013-02-20 04:00:00,
2013-02-19 22:10:00,7.3,-0.7,30.50,NNE,33,0.0,9.0,69,0.00,,,0.00,Wunderground v.1.15,2013-02-20 04:10:00,
2013-02-19 22:15:00,7.1,-0.9,30.50,NNE,33,0.0,9.0,69,0.00,,,0.00,Wunderground v.1.15,2013-02-20 04:15:00,
2013-02-19 22:25:00,6.7,-1.0,30.50,NNE,33,0.0,9.0,70,0.00,,,0.00,Wunderground v.1.15,2013-02-20 04:25:00,
2013-02-19 22:30:00,6.6,-1.1,30.50,NNE,33,0.0,9.0,70,0.00,,,0.00,Wunderground v.1.15,2013-02-20 04:30:00,
2013-02-19 22:40:00,6.7,-0.7,30.50,NNE,33,0.0,9.0,71,0.00,,,0.00,Wunderground v.1.15,2013-02-20 04:40:00,
2013-02-19 22:50:00,6.4,-1.0,30.50,NNE,33,0.0,9.0,71,0.00,,,0.00,Wunderground v.1.15,2013-02-20 04:50:00,
2013-02-19 23:00:00,6.0,-1.1,30.50,NNE,33,0.0,9.0,72,0.00,,,0.00,Wunderground v.1.15,2013-02-20 05:00:00,
2013-02-19 23:05:00,6.0,-1.1,30.50,NNE,33,0.0,9.0,72,0.00,,,0.00,Wunderground v.1.15,2013-02-20 05:05:00,
2013-02-19 23:10:00,5.9,-1.2,30.50,NNE,33,0.0,9.0,72,0.00,,,0.00,Wunderground v.1.15,2013-02-20 05:10:00,
2013-02-19 23:15:00,5.9,-0.9,30.50,NNE,33,0.0,9.0,73,0.00,,,0.00,Wunderground v.1.15,2013-02-20 05:15:00,
2013-02-19 23:20:00,5.8,-1.0,30.51,NNE,33,0.0,9.0,73,0.00,,,0.00,Wunderground v.1.15,2013-02-20 05:20:00,
2013-02-19 23:25:00,5.8,-1.0,30.51,NNE,33,0.0,9.0,73,0.00,,,0.00,Wunderground v.1.15,2013-02-20 05:25:00,
2013-02-19 23:30:00,5.8,-0.7,30.51,NNE,33,0.0,9.0,74,0.00,,,0.00,Wunderground v.1.15,2013-02-20 05:30:00,
2013-02-19 23:40:00,5.9,-0.6,30.51,NNE,33,1.0,9.0,74,0.00,,,0.00,Wunderground v.1.15,2013-02-20 05:40:00,
2013-02-19 23:50:00,5.9,-0.6,30.50,NNE,33,1.0,9.0,74,0.00,,,0.00,Wunderground v.1.15,2013-02-20 05:50:00,